Location: Salillas
(41.9950°N, 0.2228°W)
Time: 08:05:40
(UTC+00:00)

SL-14 R/B - Pass Details

Date: 29 March 2020
Orbit: 517 x 556 km, 82.4° (Epoch: 03 June)

Event Time Altitude Azimuth Distance (km) Brightness Sun altitude
Rises 20:01:15 0° 346° (NNW) 2,747 7.4 -18.3°
Reaches altitude 10° 20:03:29 10° 341° (NNW) 1,846 6.6 -18.7°
Maximum altitude 20:07:24 49° 266° (W) 719 4.2 -19.4°
Drops below altitude 10° 20:11:17 10° 191° (SSW) 1,819 5.8 -20.0°
Enters shadow 20:11:19 10° 191° (SSW) 1,834 5.8 -20.0°
